Weather History for Muncie, IN

Change the Weather History Date:

Saturday, February 8, 2014

  Actual Average Record
Temperature  
Mean Temperature 12 °F 28 °F  
Max Temperature 23 °F 36 °F 59 °F (2001)
Min Temperature 0 °F 20 °F -4 °F (1978)
Degree Days  
Heating Degree Days 53 37  
Month to date heating degree days 388 301  
Since 1 July heating degree days 4054 3694  
Cooling Degree Days 0 0  
Month to date cooling degree days 0 0  
Year to date cooling degree days 0 0  
Moisture  
Dew Point 7 °F    
Average Humidity 77    
Maximum Humidity 87    
Minimum Humidity 67    
Precipitation  
Precipitation T in 0.08 in 0.17 in (1969)
Month to date precipitation 1.37 0.64  
Year to date precipitation 2.00 2.87  
Sea Level Pressure  
Sea Level Pressure 30.27 in    
Wind  
Wind Speed 4 mph (SSE)    
Max Wind Speed 10 mph    
Max Gust Speed 14 mph    
Visibility 6 miles    
Events Snow    
T = Trace of Precipitation, MM = Missing Value Source: NWS Daily Summary

Daily Weather History Graph

Daily Weather History Graph

Search for Another Location

Airport:

Trip Planner

Search our weather history database for the weather conditions in past years. The results will help you decide how hot, cold, wet, or windy it might be!

Date:

Astronomy

Feb. 08, 2014 Rise Set
Actual Time 7:43 AM EST 6:08 PM EST
Civil Twilight 7:14 AM EST 6:37 PM EST
Nautical Twilight 6:42 AM EST 7:09 PM EST
Astronomical Twilight 6:11 AM EST 7:40 PM EST
Moon 1:02 PM EST (2/8) 2:55 AM EST (2/8)
Length of Visible Light 11h 22m
Length of Day
10h 25m
Waxing Gibbous, 68% of the Moon is Illuminated
Feb 8
Waxing Gibbous
Feb 14
Full
Feb 22
Last Quarter
Mar 1
New
Mar 8
First Quarter

Hourly Weather History & Observations

Time (EST) Temp. Windchill Dew Point Humidity Pressure Visibility Wind Dir Wind Speed Gust Speed Precip Events Conditions
12:53 AM 1.0 °F - -5.1 °F 75% 30.40 in 10.0 mi Calm Calm - N/A   Clear
1:53 AM 1.9 °F - -2.9 °F 80% 30.39 in 10.0 mi Calm Calm - N/A   Clear
2:53 AM 1.9 °F -5.6 °F -2.9 °F 80% 30.39 in 9.0 mi SW 3.5 mph - N/A   Clear
3:53 AM 3.0 °F - -2.0 °F 80% 30.37 in 9.0 mi Calm Calm - N/A   Clear
4:53 AM 3.9 °F -5.3 °F -2.0 °F 76% 30.34 in 9.0 mi ESE 4.6 mph - N/A   Overcast
5:53 AM 3.9 °F - -2.0 °F 76% 30.35 in 10.0 mi Calm Calm - N/A   Mostly Cloudy
6:53 AM 6.1 °F - -0.0 °F 76% 30.35 in 10.0 mi Calm Calm - N/A   Overcast
7:33 AM 7.0 °F - -0.0 °F 73% 30.29 in 2.5 mi Calm Calm - 0.00 in Snow Light Snow
7:53 AM 7.0 °F -1.7 °F 1.0 °F 77% 30.35 in 2.0 mi ESE 4.6 mph - 0.00 in Snow Light Snow
8:28 AM 9.0 °F 0.6 °F 1.9 °F 73% 30.29 in 4.0 mi SE 4.6 mph - 0.00 in   Haze
8:45 AM 9.0 °F 0.6 °F 3.0 °F 77% 30.28 in 2.0 mi ESE 4.6 mph - 0.00 in Snow Light Snow
8:53 AM 9.0 °F 0.6 °F 3.0 °F 77% 30.34 in 1.8 mi SE 4.6 mph - 0.00 in Snow Light Snow
9:01 AM 9.0 °F 0.6 °F 3.0 °F 77% 30.29 in 2.0 mi SE 4.6 mph - 0.00 in Snow Light Snow
9:23 AM 10.0 °F 1.8 °F 3.9 °F 76% 30.29 in 1.5 mi SSE 4.6 mph - 0.00 in Snow Light Snow
9:30 AM 10.0 °F 1.8 °F 3.9 °F 76% 30.29 in 2.0 mi SE 4.6 mph - 0.00 in Snow Light Snow
9:44 AM 9.0 °F 2.4 °F 3.9 °F 80% 30.29 in 4.0 mi SE 3.5 mph - 0.00 in Snow Light Snow
9:53 AM 9.0 °F 2.4 °F 5.0 °F 84% 30.35 in 4.0 mi ESE 3.5 mph - 0.00 in Snow Light Snow
10:53 AM 12.9 °F 3.8 °F 7.0 °F 77% 30.33 in 2.0 mi SE 5.8 mph - 0.00 in Snow Light Snow
11:20 AM 12.9 °F 0.7 °F 7.0 °F 77% 30.27 in 3.0 mi ESE 9.2 mph - 0.00 in Snow Light Snow
11:53 AM 14.0 °F 2.9 °F 8.1 °F 77% 30.32 in 3.0 mi SSE 8.1 mph - 0.00 in Snow Light Snow
12:27 PM 16.0 °F 5.3 °F 9.0 °F 74% 30.25 in 2.5 mi SE 8.1 mph - 0.00 in Snow Light Snow
12:34 PM 16.0 °F 5.3 °F 9.0 °F 74% 30.25 in 3.0 mi SE 8.1 mph - 0.00 in Snow Light Snow
12:41 PM 16.0 °F 5.3 °F 10.0 °F 77% 30.24 in 3.0 mi ESE 8.1 mph - 0.00 in Snow Light Snow
12:53 PM 16.0 °F 5.3 °F 10.0 °F 77% 30.28 in 4.0 mi ESE 8.1 mph - 0.00 in Snow Light Snow
1:11 PM 17.1 °F 10.0 °F 10.9 °F 77% 30.22 in 2.5 mi Variable 4.6 mph - 0.00 in Snow Light Snow
1:18 PM 18.0 °F 7.7 °F 10.9 °F 74% 30.21 in 3.0 mi SSE 8.1 mph - 0.00 in Snow Light Snow
1:53 PM 19.0 °F 8.2 °F 10.9 °F 71% 30.23 in 10.0 mi SSE 9.2 mph - 0.00 in   Overcast
2:53 PM 19.9 °F 8.6 °F 12.0 °F 71% 30.21 in 10.0 mi South 10.4 mph - N/A   Overcast
3:53 PM 19.9 °F 12.1 °F 10.9 °F 68% 30.19 in 10.0 mi South 5.8 mph - N/A   Overcast
4:53 PM 21.0 °F 12.4 °F 12.0 °F 68% 30.20 in 10.0 mi SSW 6.9 mph - N/A   Overcast
5:53 PM 21.0 °F 12.4 °F 14.0 °F 74% 30.19 in 10.0 mi SSW 6.9 mph - N/A   Overcast
6:53 PM 21.0 °F 16.2 °F 15.1 °F 78% 30.19 in 10.0 mi SSW 3.5 mph - N/A   Overcast
7:11 PM 21.9 °F 14.5 °F 15.1 °F 75% 30.15 in 9.0 mi South 5.8 mph - N/A   Overcast
7:34 PM 21.9 °F 17.2 °F 15.1 °F 75% 30.16 in 2.5 mi South 3.5 mph - 0.00 in Snow Light Snow
7:53 PM 21.9 °F - 16.0 °F 78% 30.20 in 4.0 mi Calm Calm - 0.00 in Snow Light Snow
8:53 PM 21.9 °F 17.2 °F 16.0 °F 78% 30.18 in 10.0 mi South 3.5 mph - 0.00 in   Overcast
9:53 PM 21.9 °F 15.7 °F 16.0 °F 78% 30.17 in 9.0 mi South 4.6 mph - N/A   Overcast
10:53 PM 23.0 °F 17.0 °F 17.1 °F 78% 30.16 in 10.0 mi SSW 4.6 mph - N/A   Overcast
11:53 PM 23.0 °F 18.4 °F 17.1 °F 78% 30.15 in 10.0 mi SSW 3.5 mph - N/A   Overcast